TURKSAT 5A

Last updated on Jan. 22, 2021, 12:02 a.m. UTC

1 47306U 21001A   21021.09101407 -.00000254  00000-0  00000+0 0  9993
2 47306  15.3502 330.4620 7796830 184.7321 208.3179  1.28841552   176
UTC
Height (km)
Latitude
Longitude
Inclination
Orbital Period
UTC large
Height (km)
Speed (km/s)
/
Latitude / Longitude
Inclination (degrees)
Orbital Period (minutes)
Azimuth
Elevation
Range (km)
Doppler Factor
iOS Compass Heading
iOS Angle

Next 30 passes for location: Hong Kong

Rise time Rise Azimuth (degrees) Set time Set Azimuth (degrees) Duration Max altitude (degrees)

No matching passes for this satellites